Overview Statistics Trail Chart Weather Telemetry Raw packets
 

This is the latest recevied weather packets stored in our database for station/object OE5MMP-13. If no packets are shown the sender has not sent any weather packets the latest 10 day(s).

<< 45 46 47 48 49 50 51 >>
Time Temp. Humidity Pressure Rain* Wind** Luminosity Snow
1787993604 20° C 63% 1019.1 hPa 0 mm - 775 W/m² -
1787993004 19.44° C 65% 1019.2 hPa 0 mm - 702 W/m² -
1787992404 19.44° C 66% 1019.2 hPa 0 mm - 724 W/m² -
1787991804 19.44° C 65% 1019.2 hPa 0 mm - 618 W/m² -
1787991204 18.89° C 66% 1018.9 hPa 0 mm - 610 W/m² -
1787990604 19.44° C 66% 1018.8 hPa 0 mm - 550 W/m² -
1787990003 19.44° C 65% 1018.9 hPa 0 mm - 527 W/m² -
1787989403 19.44° C 68% 1018.8 hPa 0 mm - 499 W/m² -
1787988804 18.89° C 66% 1018.6 hPa 0 mm - 475 W/m² -
1787988203 18.89° C 67% 1018.6 hPa 0 mm - 449 W/m² -
1787987603 18.33° C 72% 1018.7 hPa 0 mm - 448 W/m² -
1787987010 17.78° C 71% 1018.5 hPa 0 mm - 157 W/m² -
1787986403 17.78° C 71% 1018.5 hPa 0 mm - 188 W/m² -
1787985803 18.33° C 72% 1018.6 hPa 0 mm - 356 W/m² -
1787985203 17.78° C 70% 1018.5 hPa 0 mm - 296 W/m² -
1787984603 17.78° C 72% 1018.3 hPa 0 mm - 407 W/m² -
1787984003 17.78° C 71% 1018.1 hPa 0 mm - 313 W/m² -
1787983403 17.22° C 70% 1017.8 hPa 0 mm - 315 W/m² -
1787982803 17.22° C 68% 1017.9 hPa 0 mm - 265 W/m² -
1787982203 17.22° C 69% 1017.7 hPa 0 mm - 204 W/m² -
1787981603 16.67° C 68% 1017.5 hPa 0 mm - 154 W/m² -
1787981003 16.11° C 69% 1017.4 hPa 0 mm - 115 W/m² -
1787980403 16.11° C 70% 1017.4 hPa 0 mm - 82 W/m² -
1787979803 15.56° C 71% 1017.4 hPa 0 mm - 52 W/m² -
1787979203 15.56° C 71% 1017.3 hPa 0 mm - 18 W/m² -

* Rain latest hour (hover to see other rain measurements)
** Current wind speed in m/s (hover to see current wind gust speed)